HAIYANG-2B (43655 NORAD) Tracking and Keplerian Element Data

This shows tracking and keplerian element data for the satellite.

Feedback or suggestion? Click here.




ElementValue
Catalog43655
NameHAIYANG-2B
Epoch Orbit398
Epoch Day326.86386836
Epoch Year2018
RAAN331.889
Inclination99.3505
Eccentricity0.0001398
Argument of Perigee54.616
Mean Anonmoly305.5119
Mean Motion13.79292035
Decay Rate-1.62E-06
L11 43655U 18081A 18326.86386836 -.00000162 00000-0 -11483-3 0 9990
L22 43655 99.3505 331.8890 0001398 54.6160 305.5119 13.79292035 3986

Live tracking and technical data element details for HAIYANG-2B (NORAD 43655). HAIYANG-2B can be tracked NOW for your location showing map with azimuth and elevation plus other details from your city location.

Track the satellite on the map from your city or location and see movement details for azimuth, elevation, latitude, longitude, range, height, and movement on the map or in text.







IsCatalogInMostPopularTable: catalog: 43655, numindb: 65
Update: records affected: 1



GetName: 43655 HAIYANG-2B

Hit Count: updated at: Fri, 26 Apr 2019 16:30:15 GMT